Regional Weather Roundup
Issued by NWS

Home | Current Version | Previous Version | Graphics & Text | Print | Product List | Glossary On
Versions: 1 2 3 4 5 6 7 8 9 10 11 12 13 14 15 16 17 18 19 20 21 22 23 24 25 26 27 28 29 30 31 32 33 34 35 36 37 38 39 40 41 42 43 44 45 46 47 48 49 50
479
ASUS45 KBOI 260310
RWRID

IDAHO REGIONAL WEATHER ROUNDUP
NATIONAL WEATHER SERVICE BOISE ID
900 PM MDT THU AUG 25 2016

NOTE: "FAIR" INDICATES FEW OR NO CLOUDS BELOW 12000 FEET
WITH NO SIGNIFICANT WEATHER AND/OR OBSTRUCTIONS TO VISIBILITY

IDZ012-014-260400-
SOUTHWEST IDAHO


CITY           SKY/WX    TMP DP  RH WIND       PRES   REMARKS
BOISE          CLEAR     75  37  25 W9        29.97S
CALDWELL       CLEAR     73  43  33 SW3       29.96S
MOUNTAIN HOME  CLEAR     76  37  23 N13       29.96S
$$

IDZ016-017-260400-
SOUTHCENTRAL IDAHO


CITY           SKY/WX    TMP DP  RH WIND       PRES   REMARKS
BURLEY         CLEAR     64  39  39 W8        30.00S
JEROME         CLEAR     61  41  47 CALM      30.02R
TWIN FALLS     CLEAR     56  36  47 SW6       30.02S
$$

IDZ019>023-260400-
SOUTHEAST IDAHO


CITY           SKY/WX    TMP DP  RH WIND       PRES   REMARKS
IDAHO FALLS    CLOUDY    61  32  33 CALM      30.06R
POCATELLO      CLOUDY    66  27  23 E5        30.04R
REXBURG        CLOUDY    65  31  28 CALM      30.06S
$$

IDZ006-010-011-018-031-032-260400-
CENTRAL IDAHO MOUNTAINS


CITY           SKY/WX    TMP DP  RH WIND       PRES   REMARKS
MCCALL         PTCLDY    67  34  29 N7        30.10S
HAILEY         PTCLDY    66  34  30 S6        30.08R
STANLEY          N/A     55  27  34 CALM      30.15R
SALMON         CLEAR     64  36  34 N8        30.02S
CHALLIS        PTCLDY    63  32  31 NW9       30.06R
$$

IDZ002-004-006-007-026-260400-
NORTHERN IDAHO


CITY           SKY/WX    TMP DP  RH WIND       PRES   REMARKS
LEWISTON       CLEAR     81  33  17 CALM      29.95S
LOWELL           N/A     64  47  53 CALM      29.98R
COEUR D`ALENE  MOCLDY    70  37  30 N5        30.01S
MULLAN PASS    PTCLDY    56  29  35 VRB3      30.21S
$$




USA.gov is the U.S. government's official web portal to all federal, state and local government web resources and services.